| time (UTC) | temp F | wind direction | speed MPH | gust MPH | rain 1hr in | rain 24hr in | rain mn in | humidity % | barometer mb |
| 20260831124559 | 78 | 170 | 0.0 | 1.0 | 0.00 | 0.00 | 0.00 | 62 | 1014.0 |
| 20260831124054 | 78 | 212 | 1.0 | 1.0 | 0.00 | 0.00 | 0.00 | 63 | 1014.0 |
| 20260831123554 | 78 | 164 | 0.0 | 0.0 | 0.00 | 0.00 | 0.00 | 63 | 1013.6 |
| 20260831123049 | 77 | 179 | 0.0 | 1.0 | 0.00 | 0.00 | 0.00 | 63 | 1014.0 |
| 20260831122548 | 77 | 174 | 1.0 | 1.0 | 0.00 | 0.00 | 0.00 | 63 | 1014.0 |
| 20260831122044 | 77 | 174 | 1.0 | 1.0 | 0.00 | 0.00 | 0.00 | 64 | 1013.7 |
| 20260831121538 | 77 | 171 | 0.0 | 1.0 | 0.00 | 0.00 | 0.00 | 64 | 1013.8 |
| 20260831121035 | 77 | 167 | 0.0 | 0.0 | 0.00 | 0.00 | 0.00 | 64 | 1013.8 |
| 20260831120534 | 77 | 193 | 2.0 | 2.0 | 0.00 | 0.00 | 0.00 | 64 | 1013.6 |
| 20260831120030 | 77 | 164 | 0.0 | 0.0 | 0.00 | 0.00 | 0.00 | 64 | 1013.5 |
| 20260831115526 | 77 | 173 | 0.0 | 0.0 | 0.00 | 0.00 | 0.00 | 64 | 1013.6 |
| 20260831115021 | 77 | 191 | 1.0 | 2.0 | 0.00 | 0.00 | 0.00 | 64 | 1013.6 |
| 20260831114519 | 77 | 165 | 1.0 | 1.0 | 0.00 | 0.00 | 0.00 | 64 | 1013.4 |
| 20260831114014 | 77 | 166 | 0.0 | 1.0 | 0.00 | 0.00 | 0.00 | 63 | 1013.7 |
| 20260831113513 | 77 | 165 | 0.0 | 0.0 | 0.00 | 0.00 | 0.00 | 63 | 1013.6 |
| 20260831113009 | 77 | 153 | 0.0 | 1.0 | 0.00 | 0.00 | 0.00 | 63 | 1013.5 |
| 20260831112503 | 78 | 151 | 1.0 | 2.0 | 0.00 | 0.00 | 0.00 | 63 | 1013.5 |
| 20260831111958 | 78 | 179 | 3.0 | 3.0 | 0.00 | 0.00 | 0.00 | 62 | 1013.3 |
| 20260831111455 | 78 | 157 | 0.0 | 1.0 | 0.00 | 0.00 | 0.00 | 62 | 1013.4 |
| 20260831110950 | 78 | 213 | 2.0 | 2.0 | 0.00 | 0.00 | 0.00 | 61 | 1013.3 |
| 20260831110445 | 78 | 159 | 1.0 | 2.0 | 0.00 | 0.00 | 0.00 | 61 | 1013.4 |
| 20260831105944 | 78 | 214 | 7.0 | 9.0 | 0.00 | 0.00 | 0.00 | 61 | 1013.3 |
| 20260831105439 | 78 | 243 | 2.0 | 2.0 | 0.00 | 0.00 | 0.00 | 60 | 1013.2 |
| 20260831104934 | 79 | 186 | 3.0 | 3.0 | 0.00 | 0.00 | 0.00 | 60 | 1013.1 |
| 20260831104430 | 79 | 167 | 1.0 | 1.0 | 0.00 | 0.00 | 0.00 | 60 | 1012.9 |
| 20260831103926 | 79 | 175 | 1.0 | 1.0 | 0.00 | 0.00 | 0.00 | 59 | 1013.0 |
| 20260831103420 | 79 | 174 | 2.0 | 2.0 | 0.00 | 0.00 | 0.00 | 59 | 1013.0 |
| 20260831102915 | 79 | 166 | 2.0 | 3.0 | 0.00 | 0.00 | 0.00 | 59 | 1012.7 |
| 20260831102410 | 79 | 198 | 4.0 | 5.0 | 0.00 | 0.00 | 0.00 | 59 | 1012.7 |
| 20260831101905 | 79 | 178 | 1.0 | 2.0 | 0.00 | 0.00 | 0.00 | 59 | 1012.6 |
| 20260831101400 | 79 | 193 | 3.0 | 3.0 | 0.00 | 0.00 | 0.00 | 59 | 1012.6 |
| 20260831100856 | 79 | 193 | 3.0 | 5.0 | 0.00 | 0.00 | 0.00 | 59 | 1012.7 |
| 20260831100352 | 80 | 210 | 3.0 | 3.0 | 0.00 | 0.00 | 0.00 | 58 | 1012.5 |
| 20260831095852 | 80 | 204 | 4.0 | 5.0 | 0.00 | 0.00 | 0.00 | 58 | 1012.7 |
| 20260831095351 | 80 | 217 | 3.0 | 5.0 | 0.00 | 0.00 | 0.00 | 58 | 1012.7 |
| 20260831094847 | 80 | 174 | 3.0 | 3.0 | 0.00 | 0.00 | 0.00 | 58 | 1012.7 |
| 20260831094343 | 80 | 165 | 1.0 | 2.0 | 0.00 | 0.00 | 0.00 | 58 | 1012.6 |
| 20260831093838 | 80 | 194 | 3.0 | 3.0 | 0.00 | 0.00 | 0.00 | 58 | 1012.8 |
| 20260831093332 | 80 | 169 | 0.0 | 1.0 | 0.00 | 0.00 | 0.00 | 58 | 1012.5 |
| 20260831092829 | 80 | 168 | 2.0 | 2.0 | 0.00 | 0.00 | 0.00 | 58 | 1012.6 |
| 20260831092319 | 80 | 207 | 6.0 | 8.0 | 0.00 | 0.00 | 0.00 | 57 | 1012.4 |
| 20260831091814 | 80 | 234 | 1.0 | 2.0 | 0.00 | 0.00 | 0.00 | 57 | 1012.7 |
| 20260831091310 | 80 | 183 | 2.0 | 2.0 | 0.00 | 0.00 | 0.00 | 57 | 1012.7 |
| 20260831090805 | 80 | 215 | 1.0 | 2.0 | 0.00 | 0.00 | 0.00 | 57 | 1012.5 |
| 20260831090301 | 80 | 168 | 1.0 | 2.0 | 0.00 | 0.00 | 0.00 | 56 | 1012.7 |
| 20260831085757 | 80 | 142 | 1.0 | 1.0 | 0.00 | 0.00 | 0.00 | 56 | 1012.6 |
| 20260831085251 | 81 | 229 | 3.0 | 3.0 | 0.00 | 0.00 | 0.00 | 56 | 1012.7 |
| 20260831084746 | 81 | 215 | 5.0 | 7.0 | 0.00 | 0.00 | 0.00 | 56 | 1012.7 |
| 20260831084242 | 81 | 237 | 1.0 | 1.0 | 0.00 | 0.00 | 0.00 | 56 | 1012.7 |
| 20260831083738 | 81 | 211 | 3.0 | 3.0 | 0.00 | 0.00 | 0.00 | 56 | 1012.6 |
| 20260831083234 | 81 | 147 | 2.0 | 3.0 | 0.00 | 0.00 | 0.00 | 56 | 1012.5 |
| 20260831082732 | 81 | 163 | 1.0 | 1.0 | 0.00 | 0.00 | 0.00 | 56 | 1012.7 |
| 20260831082228 | 81 | 198 | 3.0 | 3.0 | 0.00 | 0.00 | 0.00 | 55 | 1012.6 |
| 20260831081723 | 81 | 178 | 1.0 | 2.0 | 0.00 | 0.00 | 0.00 | 56 | 1012.4 |
| 20260831081219 | 81 | 219 | 4.0 | 5.0 | 0.00 | 0.00 | 0.00 | 55 | 1012.3 |
| 20260831080714 | 81 | 204 | 3.0 | 3.0 | 0.00 | 0.00 | 0.00 | 55 | 1012.2 |
| 20260831080213 | 82 | 188 | 2.0 | 2.0 | 0.00 | 0.00 | 0.00 | 55 | 1012.3 |
| 20260831075709 | 82 | 185 | 3.0 | 3.0 | 0.00 | 0.00 | 0.00 | 55 | 1012.5 |
| 20260831075205 | 82 | 166 | 3.0 | 5.0 | 0.00 | 0.00 | 0.00 | 55 | 1012.3 |
| 20260831074704 | 82 | 201 | 5.0 | 6.0 | 0.00 | 0.00 | 0.00 | 55 | 1012.2 |
| 20260831074158 | 81 | 218 | 5.0 | 6.0 | 0.00 | 0.00 | 0.00 | 55 | 1012.2 |
| 20260831073654 | 81 | 186 | 4.0 | 5.0 | 0.00 | 0.00 | 0.00 | 56 | 1012.1 |
| 20260831073153 | 81 | 161 | 0.0 | 1.0 | 0.00 | 0.00 | 0.00 | 56 | 1012.4 |
| 20260831072649 | 81 | 213 | 4.0 | 5.0 | 0.00 | 0.00 | 0.00 | 56 | 1012.1 |
| 20260831072145 | 81 | 212 | 3.0 | 5.0 | 0.00 | 0.00 | 0.00 | 56 | 1012.2 |
| 20260831071644 | 81 | 177 | 0.0 | 0.0 | 0.00 | 0.00 | 0.00 | 56 | 1012.2 |
| 20260831071139 | 81 | 191 | 1.0 | 2.0 | 0.00 | 0.00 | 0.00 | 56 | 1012.1 |
| 20260831070638 | 81 | 206 | 1.0 | 1.0 | 0.00 | 0.00 | 0.00 | 56 | 1012.0 |
| 20260831070128 | 81 | 208 | 1.0 | 1.0 | 0.00 | 0.00 | 0.00 | 56 | 1011.9 |
| 20260831065626 | 81 | 163 | 0.0 | 0.0 | 0.00 | 0.00 | 0.00 | 56 | 1012.1 |
| 20260831065125 | 82 | 193 | 1.0 | 2.0 | 0.00 | 0.00 | 0.00 | 56 | 1012.0 |
| 20260831064620 | 82 | 172 | 0.0 | 0.0 | 0.00 | 0.00 | 0.00 | 55 | 1012.1 |
| 20260831064116 | 82 | 173 | 0.0 | 0.0 | 0.00 | 0.00 | 0.00 | 55 | 1012.0 |
| 20260831063612 | 82 | 159 | 1.0 | 1.0 | 0.00 | 0.00 | 0.00 | 54 | 1011.9 |
| 20260831063106 | 82 | 167 | 1.0 | 1.0 | 0.00 | 0.00 | 0.00 | 54 | 1012.0 |
| 20260831062606 | 82 | 163 | 1.0 | 1.0 | 0.00 | 0.00 | 0.00 | 53 | 1011.8 |
| 20260831062101 | 83 | 183 | 1.0 | 2.0 | 0.00 | 0.00 | 0.00 | 53 | 1011.9 |
| 20260831061558 | 83 | 208 | 2.0 | 3.0 | 0.00 | 0.00 | 0.00 | 53 | 1011.9 |
| 20260831061055 | 83 | 163 | 0.0 | 1.0 | 0.00 | 0.00 | 0.00 | 52 | 1011.8 |
| 20260831060551 | 84 | 164 | 2.0 | 2.0 | 0.00 | 0.00 | 0.00 | 52 | 1011.7 |
| 20260831060045 | 84 | 183 | 3.0 | 3.0 | 0.00 | 0.00 | 0.00 | 50 | 1011.6 |
| 20260831055540 | 85 | 161 | 0.0 | 0.0 | 0.00 | 0.00 | 0.00 | 50 | 1011.7 |
| 20260831055036 | 86 | 170 | 0.0 | 1.0 | 0.00 | 0.00 | 0.00 | 48 | 1011.6 |
| 20260831054535 | 86 | 161 | 0.0 | 0.0 | 0.00 | 0.00 | 0.00 | 47 | 1011.6 |
| 20260831054034 | 86 | 167 | 3.0 | 3.0 | 0.00 | 0.00 | 0.00 | 47 | 1011.5 |
| 20260831053532 | 86 | 179 | 1.0 | 1.0 | 0.00 | 0.00 | 0.00 | 46 | 1011.4 |
| 20260831053027 | 87 | 166 | 0.0 | 1.0 | 0.00 | 0.00 | 0.00 | 46 | 1011.6 |
| 20260831052526 | 87 | 163 | 0.0 | 0.0 | 0.00 | 0.00 | 0.00 | 46 | 1011.5 |
| 20260831052026 | 87 | 221 | 3.0 | 3.0 | 0.00 | 0.00 | 0.00 | 45 | 1011.5 |
| 20260831051524 | 87 | 178 | 2.0 | 3.0 | 0.00 | 0.00 | 0.00 | 45 | 1011.6 |
| 20260831051024 | 87 | 192 | 2.0 | 2.0 | 0.00 | 0.00 | 0.00 | 45 | 1011.2 |
| 20260831050523 | 88 | 190 | 3.0 | 3.0 | 0.00 | 0.00 | 0.00 | 45 | 1011.4 |
| 20260831050022 | 88 | 197 | 6.0 | 8.0 | 0.00 | 0.00 | 0.00 | 44 | 1011.4 |
| 20260831045521 | 88 | 210 | 2.0 | 3.0 | 0.00 | 0.00 | 0.00 | 44 | 1011.0 |
| 20260831045017 | 88 | 220 | 4.0 | 6.0 | 0.00 | 0.00 | 0.00 | 44 | 1011.4 |
| 20260831044512 | 88 | 170 | 2.0 | 3.0 | 0.00 | 0.00 | 0.00 | 44 | 1011.5 |
| 20260831044007 | 88 | 170 | 3.0 | 5.0 | 0.00 | 0.00 | 0.00 | 44 | 1011.5 |
| 20260831043507 | 88 | 173 | 2.0 | 3.0 | 0.00 | 0.00 | 0.00 | 44 | 1011.1 |
| 20260831043002 | 89 | 171 | 0.0 | 0.0 | 0.00 | 0.00 | 0.00 | 44 | 1011.5 |
| 20260831042457 | 89 | 205 | 1.0 | 2.0 | 0.00 | 0.00 | 0.00 | 43 | 1011.6 |
| 20260831041956 | 89 | 63 | 4.0 | 6.0 | 0.00 | 0.00 | 0.00 | 43 | 1011.4 |
| 20260831041452 | 89 | 206 | 2.0 | 3.0 | 0.00 | 0.00 | 0.00 | 43 | 1011.5 |
| 20260831040951 | 89 | 208 | 4.0 | 5.0 | 0.00 | 0.00 | 0.00 | 43 | 1011.5 |
| 20260831040447 | 89 | 219 | 5.0 | 7.0 | 0.00 | 0.00 | 0.00 | 43 | 1011.5 |
| 20260831035944 | 89 | 191 | 2.0 | 2.0 | 0.00 | 0.00 | 0.00 | 43 | 1011.5 |
| 20260831035443 | 89 | 205 | 5.0 | 7.0 | 0.00 | 0.00 | 0.00 | 43 | 1011.5 |
| 20260831034939 | 89 | 169 | 1.0 | 2.0 | 0.00 | 0.00 | 0.00 | 43 | 1011.4 |
| 20260831034434 | 90 | 199 | 2.0 | 2.0 | 0.00 | 0.00 | 0.00 | 43 | 1011.6 |
| 20260831033929 | 89 | 203 | 6.0 | 8.0 | 0.00 | 0.00 | 0.00 | 43 | 1011.5 |
| 20260831033424 | 90 | 194 | 3.0 | 3.0 | 0.00 | 0.00 | 0.00 | 43 | 1011.4 |
| 20260831032920 | 90 | 180 | 1.0 | 1.0 | 0.00 | 0.00 | 0.00 | 44 | 1011.6 |
| 20260831032420 | 90 | 222 | 5.0 | 7.0 | 0.00 | 0.00 | 0.00 | 44 | 1011.2 |
| 20260831031915 | 90 | 184 | 1.0 | 1.0 | 0.00 | 0.00 | 0.00 | 44 | 1011.5 |
| 20260831031414 | 90 | 208 | 1.0 | 2.0 | 0.00 | 0.00 | 0.00 | 44 | 1011.3 |
| 20260831030909 | 90 | 205 | 4.0 | 6.0 | 0.00 | 0.00 | 0.00 | 44 | 1011.2 |
| 20260831030408 | 90 | 190 | 3.0 | 5.0 | 0.00 | 0.00 | 0.00 | 44 | 1011.4 |
| 20260831025906 | 89 | 160 | 0.0 | 1.0 | 0.00 | 0.00 | 0.00 | 45 | 1011.3 |
| 20260831025401 | 89 | 218 | 3.0 | 3.0 | 0.00 | 0.00 | 0.00 | 45 | 1011.4 |
| 20260831024856 | 89 | 213 | 3.0 | 3.0 | 0.00 | 0.00 | 0.00 | 45 | 1011.3 |
| 20260831024355 | 89 | 209 | 5.0 | 6.0 | 0.00 | 0.00 | 0.00 | 46 | 1011.6 |
| 20260831023855 | 89 | 157 | 2.0 | 2.0 | 0.00 | 0.00 | 0.00 | 46 | 1011.4 |
| 20260831023353 | 89 | 235 | 4.0 | 5.0 | 0.00 | 0.00 | 0.00 | 46 | 1011.2 |
| 20260831022849 | 89 | 200 | 2.0 | 3.0 | 0.00 | 0.00 | 0.00 | 46 | 1011.3 |
| 20260831022348 | 89 | 191 | 0.0 | 0.0 | 0.00 | 0.00 | 0.00 | 46 | 1011.1 |
| 20260831021842 | 89 | 190 | 0.0 | 1.0 | 0.00 | 0.00 | 0.00 | 47 | 1010.9 |
| 20260831021336 | 89 | 142 | 0.0 | 1.0 | 0.00 | 0.00 | 0.00 | 47 | 1010.9 |
| 20260831020833 | 89 | 222 | 2.0 | 2.0 | 0.00 | 0.00 | 0.00 | 47 | 1011.1 |
| 20260831020332 | 89 | 151 | 0.0 | 1.0 | 0.00 | 0.00 | 0.00 | 47 | 1010.8 |
| 20260831015828 | 89 | 171 | 1.0 | 1.0 | 0.00 | 0.00 | 0.00 | 48 | 1010.8 |
| 20260831015324 | 89 | 181 | 1.0 | 1.0 | 0.00 | 0.00 | 0.00 | 47 | 1010.8 |
| 20260831014823 | 89 | 161 | 2.0 | 2.0 | 0.00 | 0.00 | 0.00 | 47 | 1010.8 |
| 20260831014318 | 90 | 200 | 1.0 | 2.0 | 0.00 | 0.00 | 0.00 | 47 | 1010.6 |
| 20260831013814 | 90 | 215 | 1.0 | 2.0 | 0.00 | 0.00 | 0.00 | 47 | 1010.5 |
| 20260831013313 | 90 | 201 | 1.0 | 1.0 | 0.00 | 0.00 | 0.00 | 47 | 1010.7 |
| 20260831012803 | 90 | 164 | 2.0 | 2.0 | 0.00 | 0.00 | 0.00 | 47 | 1010.5 |
| 20260831012258 | 90 | 137 | 1.0 | 3.0 | 0.00 | 0.00 | 0.00 | 47 | 1010.4 |
| 20260831011757 | 90 | 167 | 0.0 | 1.0 | 0.00 | 0.00 | 0.00 | 47 | 1010.1 |
| 20260831011253 | 90 | 168 | 1.0 | 1.0 | 0.00 | 0.00 | 0.00 | 47 | 1010.5 |
| 20260831010749 | 90 | 158 | 0.0 | 0.0 | 0.00 | 0.00 | 0.00 | 47 | 1010.4 |
| 20260831010248 | 90 | 155 | 0.0 | 0.0 | 0.00 | 0.00 | 0.00 | 48 | 1010.1 |
| 20260831005745 | 90 | 186 | 1.0 | 1.0 | 0.00 | 0.00 | 0.00 | 47 | 1010.1 |
| 20260831005240 | 91 | 173 | 0.0 | 1.0 | 0.00 | 0.00 | 0.00 | 47 | 1010.2 |
| 20260831004735 | 92 | 172 | 0.0 | 0.0 | 0.00 | 0.00 | 0.00 | 44 | 1010.0 |
| 20260831004231 | 92 | 152 | 0.0 | 0.0 | 0.00 | 0.00 | 0.00 | 43 | 1010.0 |
| 20260831003726 | 93 | 161 | 0.0 | 1.0 | 0.00 | 0.00 | 0.00 | 42 | 1009.8 |
| 20260831003222 | 94 | 200 | 0.0 | 0.0 | 0.00 | 0.00 | 0.00 | 41 | 1010.0 |
| 20260831002721 | 95 | 166 | 0.0 | 0.0 | 0.00 | 0.00 | 0.00 | 39 | 1009.9 |
| 20260831002216 | 95 | 173 | 0.0 | 0.0 | 0.00 | 0.00 | 0.00 | 38 | 1009.9 |
| 20260831001712 | 96 | 236 | 3.0 | 3.0 | 0.00 | 0.00 | 0.00 | 37 | 1009.8 |
| 20260831001206 | 96 | 211 | 5.0 | 6.0 | 0.00 | 0.00 | 0.00 | 36 | 1009.8 |
| 20260831000703 | 96 | 207 | 3.0 | 3.0 | 0.00 | 0.00 | 0.00 | 36 | 1009.8 |
| 20260831000158 | 97 | 202 | 4.0 | 5.0 | 0.00 | 0.00 | 0.00 | 35 | 1009.6 |
| 20260830235656 | 97 | 203 | 4.0 | 6.0 | 0.00 | 0.00 | 0.00 | 35 | 1009.6 |
| 20260830235152 | 97 | 195 | 4.0 | 5.0 | 0.00 | 0.00 | 0.00 | 35 | 1009.6 |
| 20260830234647 | 97 | 207 | 3.0 | 5.0 | 0.00 | 0.00 | 0.00 | 35 | 1009.7 |
| 20260830234142 | 97 | 183 | 3.0 | 6.0 | 0.00 | 0.00 | 0.00 | 35 | 1009.8 |
| 20260830233638 | 98 | 211 | 2.0 | 2.0 | 0.00 | 0.00 | 0.00 | 35 | 1009.6 |
| 20260830233133 | 98 | 193 | 3.0 | 3.0 | 0.00 | 0.00 | 0.00 | 34 | 1009.9 |
| 20260830232629 | 98 | 201 | 3.0 | 3.0 | 0.00 | 0.00 | 0.00 | 35 | 1009.8 |
| 20260830232125 | 98 | 119 | 3.0 | 3.0 | 0.00 | 0.00 | 0.00 | 35 | 1009.7 |
| 20260830231621 | 98 | 167 | 2.0 | 3.0 | 0.00 | 0.00 | 0.00 | 35 | 1009.7 |
| 20260830231120 | 98 | 194 | 3.0 | 5.0 | 0.00 | 0.00 | 0.00 | 36 | 1009.7 |
| 20260830230616 | 98 | 236 | 6.0 | 7.0 | 0.00 | 0.00 | 0.00 | 35 | 1009.7 |
| 20260830230115 | 99 | 235 | 4.0 | 5.0 | 0.00 | 0.00 | 0.00 | 35 | 1009.8 |
| 20260830225610 | 99 | 199 | 1.0 | 2.0 | 0.00 | 0.00 | 0.00 | 35 | 1009.6 |
| 20260830225105 | 99 | 208 | 5.0 | 8.0 | 0.00 | 0.00 | 0.00 | 34 | 1009.7 |
| 20260830224604 | 99 | 226 | 4.0 | 6.0 | 0.00 | 0.00 | 0.00 | 34 | 1009.7 |
| 20260830224100 | 99 | 205 | 2.0 | 5.0 | 0.00 | 0.00 | 0.00 | 34 | 1009.5 |
| 20260830223558 | 100 | 163 | 3.0 | 3.0 | 0.00 | 0.00 | 0.00 | 34 | 1009.8 |
| 20260830223057 | 100 | 204 | 9.0 | 10.0 | 0.00 | 0.00 | 0.00 | 33 | 1009.9 |
| 20260830222551 | 100 | 115 | 0.0 | 0.0 | 0.00 | 0.00 | 0.00 | 35 | 1009.7 |
| 20260830222048 | 100 | 211 | 2.0 | 3.0 | 0.00 | 0.00 | 0.00 | 34 | 1009.7 |
| 20260830221544 | 100 | 235 | 5.0 | 8.0 | 0.00 | 0.00 | 0.00 | 34 | 1009.9 |
| 20260830221040 | 100 | 98 | 4.0 | 6.0 | 0.00 | 0.00 | 0.00 | 34 | 1009.9 |
| 20260830220539 | 100 | 218 | 4.0 | 5.0 | 0.00 | 0.00 | 0.00 | 34 | 1009.6 |
| 20260830220037 | 100 | 208 | 4.0 | 7.0 | 0.00 | 0.00 | 0.00 | 35 | 1009.6 |
| 20260830215531 | 100 | 216 | 10.0 | 14.0 | 0.00 | 0.00 | 0.00 | 34 | 1009.7 |
| 20260830215026 | 100 | 186 | 4.0 | 6.0 | 0.00 | 0.00 | 0.00 | 34 | 1009.6 |
| 20260830214521 | 100 | 216 | 9.0 | 10.0 | 0.00 | 0.00 | 0.00 | 35 | 1009.9 |
| 20260830214016 | 100 | 212 | 8.0 | 14.0 | 0.00 | 0.00 | 0.00 | 35 | 1009.9 |
| 20260830213510 | 100 | 203 | 3.0 | 5.0 | 0.00 | 0.00 | 0.00 | 36 | 1009.8 |
| 20260830213006 | 100 | 208 | 5.0 | 8.0 | 0.00 | 0.00 | 0.00 | 35 | 1010.0 |
| 20260830212502 | 100 | 211 | 4.0 | 6.0 | 0.00 | 0.00 | 0.00 | 37 | 1010.0 |
| 20260830212001 | 100 | 209 | 5.0 | 8.0 | 0.00 | 0.00 | 0.00 | 37 | 1010.1 |
| 20260830211456 | 99 | 219 | 6.0 | 9.0 | 0.00 | 0.00 | 0.00 | 37 | 1010.1 |
| 20260830210951 | 99 | 212 | 3.0 | 3.0 | 0.00 | 0.00 | 0.00 | 37 | 1010.2 |
| 20260830210451 | 99 | 148 | 5.0 | 8.0 | 0.00 | 0.00 | 0.00 | 37 | 1010.2 |
| 20260830205949 | 99 | 208 | 4.0 | 5.0 | 0.00 | 0.00 | 0.00 | 38 | 1010.2 |
| 20260830205448 | 99 | 208 | 9.0 | 11.0 | 0.00 | 0.00 | 0.00 | 38 | 1010.5 |
| 20260830204944 | 99 | 238 | 6.0 | 7.0 | 0.00 | 0.00 | 0.00 | 38 | 1010.5 |
| 20260830204443 | 99 | 193 | 5.0 | 6.0 | 0.00 | 0.00 | 0.00 | 38 | 1010.8 |
| 20260830203938 | 99 | 215 | 4.0 | 5.0 | 0.00 | 0.00 | 0.00 | 38 | 1010.7 |
| 20260830203434 | 98 | 196 | 2.0 | 3.0 | 0.00 | 0.00 | 0.00 | 39 | 1010.5 |
| 20260830202933 | 98 | 174 | 5.0 | 7.0 | 0.00 | 0.00 | 0.00 | 39 | 1010.5 |
| 20260830202428 | 99 | 215 | 3.0 | 5.0 | 0.00 | 0.00 | 0.00 | 38 | 1011.1 |
| 20260830201924 | 99 | 234 | 3.0 | 6.0 | 0.00 | 0.00 | 0.00 | 38 | 1010.9 |
| 20260830201418 | 99 | 203 | 4.0 | 5.0 | 0.00 | 0.00 | 0.00 | 38 | 1011.0 |
| 20260830200914 | 98 | 208 | 4.0 | 6.0 | 0.00 | 0.00 | 0.00 | 38 | 1010.9 |
| 20260830200414 | 98 | 151 | 6.0 | 7.0 | 0.00 | 0.00 | 0.00 | 38 | 1011.1 |
| 20260830195908 | 99 | 221 | 5.0 | 7.0 | 0.00 | 0.00 | 0.00 | 38 | 1011.0 |
| 20260830195408 | 99 | 171 | 2.0 | 2.0 | 0.00 | 0.00 | 0.00 | 37 | 1011.2 |
| 20260830194906 | 100 | 204 | 7.0 | 11.0 | 0.00 | 0.00 | 0.00 | 37 | 1011.3 |
| 20260830194401 | 99 | 179 | 2.0 | 3.0 | 0.00 | 0.00 | 0.00 | 39 | 1011.4 |
| 20260830193855 | 99 | 214 | 5.0 | 6.0 | 0.00 | 0.00 | 0.00 | 38 | 1011.5 |
| 20260830193354 | 98 | 174 | 0.0 | 0.0 | 0.00 | 0.00 | 0.00 | 39 | 1011.5 |
| 20260830192850 | 98 | 183 | 3.0 | 5.0 | 0.00 | 0.00 | 0.00 | 39 | 1011.5 |
| 20260830192350 | 98 | 212 | 3.0 | 3.0 | 0.00 | 0.00 | 0.00 | 42 | 1011.5 |
| 20260830191846 | 97 | 203 | 5.0 | 6.0 | 0.00 | 0.00 | 0.00 | 41 | 1011.6 |
| 20260830191345 | 97 | 215 | 5.0 | 6.0 | 0.00 | 0.00 | 0.00 | 40 | 1011.6 |
| 20260830190841 | 97 | 214 | 5.0 | 7.0 | 0.00 | 0.00 | 0.00 | 41 | 1011.6 |
| 20260830190341 | 96 | 157 | 3.0 | 5.0 | 0.00 | 0.00 | 0.00 | 42 | 1011.8 |
| 20260830185835 | 96 | 196 | 5.0 | 6.0 | 0.00 | 0.00 | 0.00 | 42 | 1011.7 |
| 20260830185330 | 96 | 141 | 4.0 | 6.0 | 0.00 | 0.00 | 0.00 | 42 | 1011.7 |
| 20260830184825 | 96 | 124 | 3.0 | 5.0 | 0.00 | 0.00 | 0.00 | 42 | 1011.9 |
| 20260830184324 | 95 | 222 | 3.0 | 3.0 | 0.00 | 0.00 | 0.00 | 43 | 1012.0 |
| 20260830183819 | 95 | 215 | 7.0 | 8.0 | 0.00 | 0.00 | 0.00 | 42 | 1012.1 |
| 20260830183318 | 96 | 173 | 1.0 | 1.0 | 0.00 | 0.00 | 0.00 | 42 | 1011.9 |
| 20260830182814 | 95 | 268 | 3.0 | 5.0 | 0.00 | 0.00 | 0.00 | 43 | 1011.9 |
| 20260830182310 | 96 | 43 | 2.0 | 3.0 | 0.00 | 0.00 | 0.00 | 43 | 1012.0 |
| 20260830181807 | 95 | 180 | 1.0 | 1.0 | 0.00 | 0.00 | 0.00 | 43 | 1011.9 |
| 20260830181302 | 95 | 218 | 5.0 | 7.0 | 0.00 | 0.00 | 0.00 | 42 | 1012.2 |
| 20260830180801 | 94 | 152 | 3.0 | 6.0 | 0.00 | 0.00 | 0.00 | 42 | 1012.3 |
| 20260830180256 | 95 | 216 | 4.0 | 6.0 | 0.00 | 0.00 | 0.00 | 43 | 1012.0 |
| 20260830175755 | 94 | 183 | 5.0 | 6.0 | 0.00 | 0.00 | 0.00 | 43 | 1012.4 |
| 20260830175250 | 93 | 214 | 6.0 | 7.0 | 0.00 | 0.00 | 0.00 | 44 | 1012.3 |
| 20260830174750 | 93 | 234 | 6.0 | 9.0 | 0.00 | 0.00 | 0.00 | 43 | 1012.3 |
| 20260830174246 | 93 | 213 | 4.0 | 6.0 | 0.00 | 0.00 | 0.00 | 45 | 1012.5 |
| 20260830173745 | 93 | 206 | 7.0 | 9.0 | 0.00 | 0.00 | 0.00 | 44 | 1012.3 |
| 20260830173241 | 93 | 219 | 7.0 | 11.0 | 0.00 | 0.00 | 0.00 | 44 | 1012.4 |
| 20260830172738 | 93 | 201 | 11.0 | 15.0 | 0.00 | 0.00 | 0.00 | 43 | 1012.4 |
| 20260830172234 | 92 | 165 | 3.0 | 6.0 | 0.00 | 0.00 | 0.00 | 45 | 1012.5 |
| 20260830171729 | 92 | 150 | 5.0 | 9.0 | 0.00 | 0.00 | 0.00 | 45 | 1012.4 |
| 20260830171224 | 92 | 262 | 5.0 | 8.0 | 0.00 | 0.00 | 0.00 | 45 | 1012.8 |
| 20260830170719 | 92 | 212 | 5.0 | 6.0 | 0.00 | 0.00 | 0.00 | 46 | 1012.6 |
| 20260830170218 | 93 | 208 | 8.0 | 13.0 | 0.00 | 0.00 | 0.00 | 44 | 1012.8 |
| 20260830165717 | 92 | 149 | 4.0 | 6.0 | 0.00 | 0.00 | 0.00 | 44 | 1012.7 |
| 20260830165213 | 91 | 163 | 1.0 | 2.0 | 0.00 | 0.00 | 0.00 | 46 | 1012.6 |
| 20260830164710 | 90 | 214 | 7.0 | 10.0 | 0.00 | 0.00 | 0.00 | 46 | 1012.8 |
| 20260830164205 | 91 | 167 | 5.0 | 8.0 | 0.00 | 0.00 | 0.00 | 46 | 1012.8 |
| 20260830163702 | 90 | 220 | 4.0 | 6.0 | 0.00 | 0.00 | 0.00 | 47 | 1012.8 |
| 20260830163157 | 90 | 275 | 7.0 | 8.0 | 0.00 | 0.00 | 0.00 | 47 | 1012.8 |
| 20260830162652 | 89 | 38 | 4.0 | 5.0 | 0.00 | 0.00 | 0.00 | 47 | 1013.0 |
| 20260830162147 | 90 | 231 | 6.0 | 8.0 | 0.00 | 0.00 | 0.00 | 46 | 1012.9 |
| 20260830161642 | 89 | 160 | 2.0 | 3.0 | 0.00 | 0.00 | 0.00 | 48 | 1013.0 |
| 20260830161137 | 89 | 202 | 5.0 | 7.0 | 0.00 | 0.00 | 0.00 | 48 | 1013.1 |
| 20260830160633 | 90 | 174 | 4.0 | 5.0 | 0.00 | 0.00 | 0.00 | 47 | 1013.1 |
| 20260830160127 | 90 | 193 | 2.0 | 2.0 | 0.00 | 0.00 | 0.00 | 46 | 1012.9 |
| 20260830155624 | 89 | 163 | 1.0 | 1.0 | 0.00 | 0.00 | 0.00 | 48 | 1013.0 |
| 20260830155119 | 88 | 176 | 2.0 | 2.0 | 0.00 | 0.00 | 0.00 | 49 | 1013.1 |
| 20260830154614 | 88 | 228 | 6.0 | 9.0 | 0.00 | 0.00 | 0.00 | 48 | 1012.9 |
| 20260830154110 | 88 | 164 | 1.0 | 2.0 | 0.00 | 0.00 | 0.00 | 50 | 1012.9 |
| 20260830153606 | 87 | 215 | 2.0 | 2.0 | 0.00 | 0.00 | 0.00 | 51 | 1012.8 |
| 20260830153101 | 87 | 132 | 1.0 | 2.0 | 0.00 | 0.00 | 0.00 | 50 | 1012.6 |
| 20260830152600 | 86 | 186 | 2.0 | 2.0 | 0.00 | 0.00 | 0.00 | 53 | 1012.5 |
| 20260830152059 | 85 | 218 | 4.0 | 6.0 | 0.00 | 0.00 | 0.00 | 51 | 1012.7 |
| 20260830151559 | 85 | 156 | 1.0 | 2.0 | 0.00 | 0.00 | 0.00 | 53 | 1012.7 |
| 20260830151054 | 84 | 221 | 3.0 | 5.0 | 0.00 | 0.00 | 0.00 | 53 | 1012.6 |
| 20260830150549 | 84 | 181 | 2.0 | 2.0 | 0.00 | 0.00 | 0.00 | 54 | 1012.4 |
| 20260830150043 | 84 | 209 | 2.0 | 2.0 | 0.00 | 0.00 | 0.00 | 54 | 1012.8 |
| 20260830145543 | 83 | 191 | 1.0 | 1.0 | 0.00 | 0.00 | 0.00 | 56 | 1012.8 |
| 20260830145038 | 82 | 174 | 3.0 | 3.0 | 0.00 | 0.00 | 0.00 | 56 | 1012.9 |
| 20260830144534 | 81 | 206 | 4.0 | 6.0 | 0.00 | 0.00 | 0.00 | 57 | 1012.9 |
| 20260830144030 | 81 | 144 | 0.0 | 1.0 | 0.00 | 0.00 | 0.00 | 57 | 1012.7 |
| 20260830143526 | 81 | 223 | 2.0 | 5.0 | 0.00 | 0.00 | 0.00 | 57 | 1012.9 |
| 20260830143023 | 82 | 241 | 3.0 | 6.0 | 0.00 | 0.00 | 0.00 | 55 | 1012.6 |
| 20260830142519 | 83 | 183 | 1.0 | 2.0 | 0.00 | 0.00 | 0.00 | 54 | 1012.6 |
| 20260830142014 | 83 | 197 | 6.0 | 7.0 | 0.00 | 0.00 | 0.00 | 54 | 1012.7 |
| 20260830141509 | 82 | 166 | 2.0 | 5.0 | 0.00 | 0.00 | 0.00 | 55 | 1012.8 |
| 20260830141004 | 82 | 191 | 4.0 | 7.0 | 0.00 | 0.00 | 0.00 | 56 | 1012.8 |
| 20260830140459 | 81 | 171 | 2.0 | 3.0 | 0.00 | 0.00 | 0.00 | 56 | 1012.8 |
| 20260830135958 | 81 | 193 | 3.0 | 5.0 | 0.00 | 0.00 | 0.00 | 57 | 1012.8 |
| 20260830135454 | 80 | 212 | 4.0 | 6.0 | 0.00 | 0.00 | 0.00 | 57 | 1012.9 |
| 20260830134949 | 80 | 154 | 1.0 | 2.0 | 0.00 | 0.00 | 0.00 | 58 | 1012.9 |
| 20260830134444 | 79 | 156 | 4.0 | 6.0 | 0.00 | 0.00 | 0.00 | 59 | 1012.8 |
| 20260830133940 | 79 | 225 | 7.0 | 9.0 | 0.00 | 0.00 | 0.00 | 59 | 1012.6 |
| 20260830133436 | 78 | 204 | 4.0 | 6.0 | 0.00 | 0.00 | 0.00 | 60 | 1012.7 |
| 20260830132930 | 78 | 220 | 2.0 | 3.0 | 0.00 | 0.00 | 0.00 | 60 | 1013.1 |
| 20260830132427 | 78 | 165 | 3.0 | 5.0 | 0.00 | 0.00 | 0.00 | 61 | 1012.8 |
| 20260830131926 | 78 | 179 | 2.0 | 2.0 | 0.00 | 0.00 | 0.00 | 61 | 1012.9 |
| 20260830131425 | 77 | 164 | 4.0 | 6.0 | 0.00 | 0.00 | 0.00 | 61 | 1012.9 |
| 20260830130920 | 77 | 226 | 4.0 | 7.0 | 0.00 | 0.00 | 0.00 | 62 | 1012.9 |
| 20260830130416 | 77 | 207 | 4.0 | 5.0 | 0.00 | 0.00 | 0.00 | 62 | 1013.1 |
| 20260830125914 | 77 | 225 | 5.0 | 5.0 | 0.00 | 0.00 | 0.00 | 62 | 1012.8 |
| 20260830125410 | 77 | 220 | 5.0 | 6.0 | 0.00 | 0.00 | 0.00 | 62 | 1013.2 |
| 20260830124908 | 77 | 170 | 1.0 | 2.0 | 0.00 | 0.00 | 0.00 | 62 | 1013.3 |